[[{"header":{"parameterUnit":"m.s-1","parameterCategory":2,"la1":30.2991,"la2":30.254,"lo1":-89.0895,"lo2":-89.0444,"dy":0.0017,"dx":0.0017,"nx":28,"ny":28,"refTime":"2025-12-13T03:00:00:Z","depth":"0","parameterNumber":2,"parameterNumberName":"U-component_of_CURRENTS"},"data":[0,0,0,0,0,0,0,0,0,0,0,0,0,0,0,0,0,0,0,0,0,0,0,0,0,0,0,0,0,0,0,0,0,0,0,0,0,0,0,0,0,0,0,0,0,0,0,0,0,0,0,0,0,0,0,0,0,0,0.3615,0.3616,0,0.3657,0.3656,0.3656,0.3668,0.3668,0.3668,0.3669,0.3647,0.3646,0.3645,0,0,0,0,0,0,0,0,0,0,0,0,0,0.3568,0.3568,0.3614,0.3616,0.3617,0.3657,0.3656,0.3656,0.3668,0.3668,0.3668,0.3669,0.3647,0.3646,0.3645,0,0,0,0,0,0,0,0,0,0,0,0,0,0.359,0.3568,0.3614,0.3632,0.3634,0.3657,0.3656,0.3656,0.3668,0.3668,0.3669,0.3669,0.3647,0.3646,0.3645,0.3627,0,0,0.3641,0.364,0,0,0,0,0,0,0,0,0.3589,0.3591,0.3628,0.3631,0.3634,0.3663,0.3632,0.3646,0.3667,0.3648,0.3669,0.3669,0.365,0.3649,0.3647,0.3626,0.3625,0.3641,0.364,0.3639,0.3639,0,0,0,0,0,0,0,0.3587,0.359,0.3625,0.3629,0.3633,0.3646,0.3649,0.3635,0.364,0.365,0.3652,0.3667,0.365,0.3649,0.3647,0.3624,0.3641,0.364,0.3639,0.3638,0.355,0.3549,0,0,0,0,0,0,0.3593,0.3588,0.3624,0.3627,0.3619,0.3647,0.365,0.3648,0.3641,0.3643,0.3667,0.3668,0.3651,0.3648,0.3646,0.3634,0.3639,0.3638,0.3637,0.3552,0.355,0.3548,0,0,0,0,0,0,0.3592,0.3595,0.3622,0.3614,0.362,0.3648,0.3645,0.3649,0.3651,0.3656,0.3655,0.3667,0.3651,0.3648,0.3628,0.3633,0.3637,0.3636,0.3553,0.3551,0.3549,0.3603,0,0,0,0,0,0,0.359,0.3594,0.3586,0.3614,0.3621,0.3633,0.3645,0.3649,0.3662,0.3664,0.3656,0.3654,0.3651,0.363,0.3627,0.3631,0.3635,0.3555,0.3552,0.355,0.3603,0.3602,0.3602,0,0,0,0,0,0.3588,0.3578,0.3585,0.359,0.3611,0.3633,0.3636,0.3655,0.3662,0.3658,0.365,0.3655,0.3609,0.3628,0.3625,0.3628,0.3557,0.3553,0.355,0.3603,0.3603,0.3602,0,0,0,0,0,0,0.3545,0.358,0.3588,0.3586,0.3609,0.3638,0.3638,0.3654,0.3646,0.3645,0.3643,0.364,0.3619,0.3605,0.3626,0.3587,0.358,0.3576,0.3621,0.3621,0.362,0.3618,0.3634,0,0,0,0,0,0.3535,0.354,0.3574,0.3572,0.3582,0.3609,0.3619,0.3635,0.3641,0.3639,0.3635,0.3617,0.36,0.3597,0.3572,0.3561,0.3564,0.3553,0.3552,0.3553,0.3543,0.3554,0.3555,0.3537,0.3537,0.3537,0,0,0.3515,0.354,0.3538,0.3565,0.358,0.3591,0.3613,0.3631,0.3636,0.3636,0.3624,0.3613,0.3591,0.3575,0.3565,0.357,0.3562,0.3548,0.355,0.3539,0.355,0.3553,0.3555,0.3534,0.3535,0.3535,0,0,0.3494,0.3501,0.3503,0.3523,0.356,0.3577,0.3583,0.3609,0.3614,0.3607,0.3605,0.3599,0.3569,0.3567,0.356,0.3536,0.3552,0.3522,0.3536,0.3548,0.3551,0.3553,0.3584,0.3589,0.3533,0.3534,0.3534,0,0.3466,0.3478,0.3506,0.352,0.3535,0.3569,0.3575,0.3583,0.3599,0.36,0.3601,0.357,0.3564,0.3556,0.3553,0.3541,0.3553,0.3554,0.3553,0.3555,0.3557,0.3588,0.3593,0.3536,0.3535,0.3535,0.3535,0,0.3458,0.3464,0.3468,0.3495,0.351,0.3521,0.3549,0.3553,0.3564,0.3577,0.3566,0.3562,0.3548,0.3549,0.355,0.3555,0.3563,0.3552,0.3569,0.3563,0.3595,0.3599,0.3539,0.3538,0.3537,0.3537,0,0,0.3409,0.3449,0.3451,0.3459,0.35,0.3509,0.3518,0.3535,0.3537,0.3547,0.3547,0.3539,0.355,0.3539,0.3547,0.3566,0.361,0.3571,0.3571,0.3629,0.3655,0.3674,0.3681,0.3609,0.3609,0.3609,0.3683,0,0.3393,0.3402,0.3435,0.3439,0.3444,0.3479,0.3484,0.3505,0.3516,0.352,0.3536,0.3529,0.3544,0.3546,0.3569,0.3585,0.3617,0.3592,0.3626,0.3627,0.3668,0.3684,0.357,0.3626,0.3687,0.3688,0.3688,0,0.3385,0.3392,0.3389,0.3415,0.342,0.3425,0.3441,0.3452,0.3475,0.3486,0.35,0.351,0.3539,0.3545,0.3598,0.3583,0.362,0.3643,0.3646,0.3643,0.3653,0.3632,0.3631,0.339,0.3695,0.3694,0.3694,0,0.3348,0.3366,0.3358,0.3367,0.3395,0.3396,0.341,0.3435,0.3445,0.3466,0.3473,0.3503,0.3517,0.3559,0.362,0.361,0.3683,0.3672,0.3728,0.3731,0.3626,0.3619,0.3414,0.371,0.371,0.371,0.371,0,0.333,0.3327,0.3335,0.3333,0.3327,0.3359,0.3357,0.338,0.3404,0.3403,0.3452,0.3458,0.352,0.3571,0.3622,0.3698,0.369,0.3734,0.3749,0.3643,0.3637,0.3416,0.3375,0.3713,0.3712,0.3711,0.3711,0,0.3306,0.3307,0.3306,0.3313,0.3314,0.3311,0.3332,0.3327,0.3361,0.336,0.3369,0.3433,0.3501,0.3582,0.3658,0.3702,0.3658,0.3799,0.3687,0.3687,0.3509,0.3479,0.3334,0.326,0.3864,0.3865,0.3866,0,0.3298,0.3292,0.3288,0.3278,0.3281,0.3276,0.3272,0.3302,0.3293,0.3335,0.3325,0.3407,0.3457,0.3608,0.3705,0.382,0.3665,0.3763,0.3716,0.3481,0.3457,0.3359,0.3299,0.3606,0.3605,0.3604,0.3603,0,0.3292,0.3288,0.3281,0.3254,0.3238,0.322,0.3207,0.3193,0.3213,0.3233,0.3259,0.3315,0.3472,0.3536,0.3701,0.3755,0.3552,0.3745,0.3502,0.3245,0.312,0.3061,0.3591,0.3592,0.3593,0.3594,0.3595,0.3595,0.3288,0.3279,0.3258,0.3232,0.3201,0.3147,0.31,0.3085,0.3077,0.3044,0.3163,0.3183,0.3278,0.351,0.3558,0.3451,0.3527,0.3322,0.3315,0.324,0.3119,0.3652,0.3669,0.367,0.3672,0.3673,0.3674,0,0.3279,0.3259,0.3236,0.3174,0.3104,0.3107,0.3039,0.2962,0.2903,0.2925,0.2959,0.2958,0.3006,0.3051,0.3068,0.2984,0.291,0.2856,0.2614,0.2589,0.3032,0.2962,0.2822,0.2822,0.2823,0.2823,0.2823,0.2823,0.3263,0.3234,0.3215,0.3091,0.3032,0.2897,0.2835,0.274,0.2709,0.26,0.255,0.2586,0.2592,0.2572,0.2423,0.2404,0.2192,0.2186,0.2157,0.2353,0.2391,0.2426,0.2337,0.2068,0.2068,0.1584,0.158,0.1577]},{"header":{"parameterUnit":"m.s-1","parameterCategory":2,"la1":30.2991,"la2":30.254,"lo1":-89.0895,"lo2":-89.0444,"dy":0.0017,"dx":0.0017,"nx":28,"ny":28,"refTime":"2025-12-13T03:00:00:Z","depth":"0","parameterNumber":3,"parameterNumberName":"V-component_of_CURRENTS"},"data":[0,0,0,0,0,0,0,0,0,0,0,0,0,0,0,0,0,0,0,0,0,0,0,0,0,0,0,0,0,0,0,0,0,0,0,0,0,0,0,0,0,0,0,0,0,0,0,0,0,0,0,0,0,0,0,0,0,0,-0.1223,-0.1224,0,-0.1333,-0.1334,-0.1335,-0.1384,-0.1384,-0.1384,-0.1383,-0.1516,-0.152,-0.1524,0,0,0,0,0,0,0,0,0,0,0,0,0,-0.1123,-0.1124,-0.1223,-0.1224,-0.1226,-0.1332,-0.1334,-0.1335,-0.1384,-0.1384,-0.1383,-0.1383,-0.1515,-0.152,-0.1524,0,0,0,0,0,0,0,0,0,0,0,0,0,-0.1193,-0.1125,-0.1223,-0.1263,-0.1267,-0.1332,-0.1334,-0.1336,-0.1384,-0.1384,-0.1383,-0.1383,-0.1514,-0.1519,-0.1525,-0.1564,0,0,-0.1541,-0.1544,0,0,0,0,0,0,0,0,-0.1189,-0.1197,-0.1255,-0.126,-0.1265,-0.1344,-0.1347,-0.1413,-0.1384,-0.134,-0.1383,-0.1383,-0.1461,-0.1471,-0.1492,-0.157,-0.1576,-0.1542,-0.1545,-0.1548,-0.1549,0,0,0,0,0,0,0,-0.1184,-0.1193,-0.1267,-0.1257,-0.1263,-0.1298,-0.1307,-0.136,-0.1401,-0.1344,-0.1347,-0.1359,-0.1464,-0.1486,-0.1496,-0.1578,-0.1542,-0.1547,-0.155,-0.1552,-0.1676,-0.1676,0,0,0,0,0,0,-0.1167,-0.1188,-0.1263,-0.127,-0.1225,-0.13,-0.131,-0.1319,-0.14,-0.1412,-0.1359,-0.1361,-0.1477,-0.1489,-0.15,-0.1533,-0.1548,-0.1553,-0.1556,-0.1676,-0.1676,-0.1676,0,0,0,0,0,0,-0.1164,-0.1172,-0.1259,-0.1231,-0.1245,-0.1301,-0.1312,-0.1322,-0.1345,-0.1412,-0.1424,-0.1372,-0.1477,-0.1493,-0.1543,-0.1539,-0.1555,-0.156,-0.1676,-0.1676,-0.1676,-0.161,0,0,0,0,0,0,-0.1161,-0.1171,-0.1173,-0.123,-0.1246,-0.1297,-0.1312,-0.1324,-0.1352,-0.1356,-0.1427,-0.1439,-0.1478,-0.1535,-0.1549,-0.1547,-0.1565,-0.1676,-0.1676,-0.1676,-0.1612,-0.1607,-0.1603,0,0,0,0,0,-0.1157,-0.1162,-0.1172,-0.1181,-0.1246,-0.1297,-0.1309,-0.1348,-0.1353,-0.1367,-0.1408,-0.1437,-0.1544,-0.1539,-0.1556,-0.1555,-0.1676,-0.1676,-0.1676,-0.1614,-0.1608,-0.1604,0,0,0,0,0,0,-0.1121,-0.1169,-0.1181,-0.12,-0.1244,-0.1305,-0.1321,-0.1346,-0.139,-0.1389,-0.1446,-0.1461,-0.1499,-0.154,-0.1534,-0.159,-0.1611,-0.1615,-0.1559,-0.1554,-0.155,-0.1519,-0.1569,0,0,0,0,0,-0.1113,-0.1128,-0.118,-0.1196,-0.1213,-0.1264,-0.1289,-0.1315,-0.1362,-0.1381,-0.1427,-0.1473,-0.1513,-0.1542,-0.1585,-0.1627,-0.1626,-0.1635,-0.163,-0.1626,-0.1612,-0.1613,-0.1606,-0.1675,-0.1675,-0.1675,0,0,-0.1102,-0.1132,-0.1139,-0.1189,-0.1222,-0.1246,-0.1279,-0.1313,-0.1329,-0.1389,-0.1422,-0.1462,-0.152,-0.1556,-0.1577,-0.1591,-0.1603,-0.1626,-0.1622,-0.161,-0.1612,-0.1605,-0.1598,-0.1675,-0.1675,-0.1675,0,0,-0.1092,-0.1113,-0.1123,-0.1154,-0.1201,-0.1233,-0.1239,-0.1296,-0.1317,-0.1357,-0.1393,-0.1427,-0.1502,-0.1534,-0.1561,-0.1562,-0.1576,-0.1579,-0.154,-0.1541,-0.1535,-0.1529,-0.1496,-0.1488,-0.1582,-0.1581,-0.1581,0,-0.1074,-0.1095,-0.1135,-0.1153,-0.117,-0.1221,-0.1231,-0.1265,-0.1329,-0.1338,-0.1357,-0.1431,-0.1486,-0.1514,-0.1515,-0.1551,-0.1541,-0.1553,-0.1533,-0.1527,-0.1523,-0.1491,-0.1483,-0.1578,-0.1579,-0.1579,-0.1579,0,-0.1077,-0.1089,-0.1097,-0.113,-0.1154,-0.1173,-0.1216,-0.1237,-0.1262,-0.1293,-0.132,-0.1382,-0.1424,-0.1447,-0.1487,-0.1485,-0.1482,-0.152,-0.1538,-0.1511,-0.148,-0.1472,-0.1574,-0.1575,-0.1576,-0.1577,0,0,-0.1048,-0.1087,-0.1089,-0.1091,-0.1139,-0.1156,-0.1173,-0.1203,-0.1197,-0.1252,-0.1244,-0.1317,-0.134,-0.137,-0.1418,-0.1424,-0.1388,-0.1455,-0.1457,-0.1408,-0.1355,-0.1255,-0.1238,-0.1421,-0.142,-0.1419,-0.1336,0,-0.1035,-0.1045,-0.1074,-0.1077,-0.1081,-0.1118,-0.1124,-0.1153,-0.1177,-0.1184,-0.1233,-0.1249,-0.1315,-0.1322,-0.1342,-0.1381,-0.137,-0.1405,-0.1401,-0.14,-0.1303,-0.1227,-0.1121,-0.103,-0.133,-0.1328,-0.1328,0,-0.1031,-0.1034,-0.1028,-0.1034,-0.1037,-0.1042,-0.1041,-0.1058,-0.1082,-0.1094,-0.1117,-0.1155,-0.118,-0.1232,-0.1263,-0.128,-0.1305,-0.1328,-0.1327,-0.125,-0.1286,-0.1112,-0.1006,-0.1089,-0.1317,-0.1318,-0.1319,0,-0.0988,-0.1003,-0.0987,-0.0993,-0.1009,-0.1,-0.1008,-0.1025,-0.1019,-0.1029,-0.1006,-0.1058,-0.1053,-0.111,-0.1168,-0.1213,-0.1173,-0.125,-0.1172,-0.1165,-0.108,-0.1066,-0.1039,-0.1244,-0.1244,-0.1244,-0.1244,0,-0.0967,-0.0955,-0.0961,-0.0953,-0.0921,-0.095,-0.0918,-0.0929,-0.0926,-0.0888,-0.0952,-0.0906,-0.102,-0.1023,-0.1106,-0.1086,-0.1124,-0.1125,-0.1127,-0.1051,-0.1036,-0.1112,-0.1188,-0.1241,-0.1242,-0.1242,-0.1243,0,-0.0927,-0.0936,-0.0914,-0.0909,-0.0902,-0.0877,-0.0861,-0.0834,-0.0834,-0.0777,-0.0768,-0.0778,-0.0762,-0.085,-0.0907,-0.0963,-0.0985,-0.0975,-0.0853,-0.0841,-0.0852,-0.0928,-0.0866,-0.0871,-0.0871,-0.0868,-0.0866,0,-0.0909,-0.0892,-0.0869,-0.0844,-0.0838,-0.0808,-0.078,-0.0786,-0.0749,-0.068,-0.0634,-0.0593,-0.0529,-0.0551,-0.0639,-0.0699,-0.0831,-0.0651,-0.0727,-0.0791,-0.088,-0.0943,-0.0959,-0.0587,-0.0583,-0.0579,-0.0576,0,-0.0862,-0.0852,-0.0831,-0.0776,-0.0739,-0.0696,-0.0654,-0.06,-0.0575,-0.0483,-0.035,-0.0282,-0.0287,-0.0249,-0.0328,-0.0411,-0.0655,-0.0571,-0.0682,-0.0664,-0.0686,-0.0711,-0.0699,-0.0541,-0.0545,-0.0547,-0.0549,-0.0551,-0.0822,-0.079,-0.0755,-0.0697,-0.0648,-0.0559,-0.0461,-0.0385,-0.0252,-0.0037,-0.0076,0.0152,0.0089,0.002,-0.0137,-0.0313,-0.0395,-0.0369,-0.0455,-0.0513,-0.051,-0.0388,-0.0214,-0.0215,-0.0216,-0.0218,-0.0219,0,-0.0768,-0.0727,-0.0675,-0.0585,-0.0481,-0.0483,-0.035,-0.0198,0.0049,0.0251,0.0424,0.0597,0.051,0.0295,0.0023,-0.016,-0.0291,-0.0282,-0.0387,-0.0412,-0.0325,-0.0308,-0.0091,-0.0091,-0.0091,-0.0091,-0.0091,-0.0091,-0.0734,-0.0665,-0.0631,-0.0441,-0.0353,-0.0156,-0.0033,0.0188,0.039,0.0774,0.1012,0.1111,0.0945,0.0327,-0.0099,-0.0211,-0.0402,-0.0369,-0.0512,-0.0513,-0.0531,-0.0548,-0.055,-0.0388,-0.0388,-0.0537,-0.0539,-0.054]}],[{"header":{"parameterUnit":"m.s-1","parameterCategory":2,"la1":30.2991,"la2":30.254,"lo1":-89.0895,"lo2":-89.0444,"dy":0.0017,"dx":0.0017,"nx":28,"ny":28,"refTime":"2025-12-13T03:00:00:Z","depth":"2","parameterNumber":2,"parameterNumberName":"U-component_of_CURRENTS"},"data":[0,0,0,0,0,0,0,0,0,0,0,0,0,0,0,0,0,0,0,0,0,0,0,0,0,0,0,0,0,0,0,0,0,0,0,0,0,0,0,0,0,0,0,0,0,0,0,0,0,0,0,0,0,0,0,0,0,0,0.1884,0.1884,0,0.1873,0.1872,0.1872,0.1865,0.1865,0.1866,0.1866,0.1789,0.1787,0.1784,0,0,0,0,0,0,0,0,0,0,0,0,0,0.19,0.1899,0.1884,0.1884,0.1884,0.1873,0.1872,0.1872,0.1865,0.1865,0.1866,0.1866,0.1789,0.1787,0.1784,0,0,0,0,0,0,0,0,0,0,0,0,0,0.1889,0.1899,0.1884,0.1881,0.1881,0.1873,0.1872,0.1872,0.1865,0.1865,0.1866,0.1866,0.179,0.1787,0.1784,0.1759,0,0,0.1774,0.1772,0,0,0,0,0,0,0,0,0.189,0.1888,0.1881,0.1881,0.1881,0.1873,0.185,0.1832,0.1865,0.1869,0.1866,0.1866,0.1812,0.1807,0.1802,0.1755,0.1752,0.1773,0.1771,0.177,0.1769,0,0,0,0,0,0,0,0.1891,0.1889,0.1877,0.1881,0.1881,0.188,0.1879,0.1847,0.1836,0.1869,0.1869,0.1871,0.1811,0.1805,0.18,0.1751,0.1774,0.1771,0.1769,0.1767,0.1726,0.1727,0,0,0,0,0,0,0.1896,0.1889,0.1878,0.1877,0.1888,0.188,0.1878,0.1873,0.1838,0.1834,0.187,0.187,0.1811,0.1804,0.1797,0.1797,0.177,0.1767,0.1765,0.1725,0.1727,0.1727,0,0,0,0,0,0,0.1896,0.1895,0.1878,0.1885,0.1884,0.188,0.1874,0.1873,0.1881,0.1841,0.1835,0.1881,0.1811,0.1802,0.1791,0.1793,0.1765,0.1762,0.1724,0.1726,0.1727,0.1776,0,0,0,0,0,0,0.1896,0.1894,0.19,0.1885,0.1883,0.1878,0.1874,0.1873,0.1882,0.1882,0.1847,0.184,0.181,0.1797,0.1788,0.1788,0.176,0.1723,0.1725,0.1727,0.1774,0.1779,0.1784,0,0,0,0,0,0.1897,0.1891,0.19,0.1899,0.1888,0.1879,0.1877,0.1874,0.1882,0.1883,0.1874,0.1842,0.1801,0.1795,0.1784,0.1783,0.1722,0.1725,0.1726,0.1771,0.1778,0.1784,0,0,0,0,0,0,0.1894,0.189,0.1899,0.1891,0.1893,0.1878,0.1879,0.1884,0.1878,0.1882,0.1851,0.1842,0.1835,0.1807,0.1801,0.1779,0.1757,0.1757,0.1794,0.18,0.1805,0.1808,0.1757,0,0,0,0,0,0.19,0.1898,0.1896,0.1893,0.1895,0.1895,0.1895,0.1895,0.1886,0.1885,0.1866,0.1847,0.1832,0.1817,0.1796,0.1779,0.18,0.1774,0.1779,0.1783,0.1781,0.183,0.184,0.1734,0.1734,0.1734,0,0,0.1896,0.1897,0.1895,0.1894,0.1895,0.1893,0.1894,0.1896,0.1899,0.1875,0.1874,0.1864,0.1835,0.1823,0.1816,0.18,0.1833,0.1786,0.179,0.1785,0.1834,0.1844,0.1853,0.1735,0.1735,0.1735,0,0,0.1884,0.1893,0.1888,0.1891,0.1899,0.19,0.1906,0.1904,0.1909,0.1907,0.19,0.1903,0.1864,0.1854,0.1841,0.1863,0.1864,0.1852,0.1869,0.1918,0.1927,0.1935,0.2011,0.2025,0.1847,0.1848,0.1848,0,0.1884,0.1878,0.1886,0.1884,0.1888,0.1906,0.1903,0.1909,0.1907,0.1917,0.1911,0.1902,0.1879,0.1878,0.1886,0.1873,0.1912,0.1847,0.1926,0.1934,0.1942,0.2017,0.2032,0.185,0.185,0.185,0.1849,0,0.1865,0.1869,0.1867,0.1874,0.188,0.1881,0.1894,0.1908,0.1922,0.1931,0.1945,0.1931,0.1926,0.1921,0.1903,0.194,0.1958,0.1935,0.1912,0.1956,0.2032,0.2047,0.1854,0.1853,0.1852,0.1852,0,0,0.1836,0.185,0.1852,0.1858,0.1877,0.1876,0.1895,0.1915,0.1937,0.1946,0.1973,0.1959,0.197,0.1958,0.1948,0.1981,0.2079,0.1979,0.1981,0.2058,0.2219,0.2108,0.2115,0.2074,0.2076,0.2078,0.2263,0,0.1821,0.1821,0.1831,0.1836,0.1838,0.1865,0.1882,0.1908,0.1934,0.1967,0.1982,0.1997,0.1979,0.1983,0.2018,0.2055,0.2115,0.2032,0.216,0.2164,0.2063,0.2126,0.1934,0.207,0.2278,0.228,0.2282,0,0.1796,0.1804,0.1803,0.1827,0.1831,0.1837,0.1878,0.1896,0.1953,0.1975,0.2008,0.2027,0.2074,0.2053,0.2164,0.2115,0.2175,0.2211,0.2219,0.2101,0.2079,0.2052,0.209,0.2308,0.2305,0.2304,0.2302,0,0.1768,0.1783,0.1784,0.1789,0.1817,0.1828,0.185,0.1901,0.1917,0.1989,0.2008,0.2078,0.2101,0.2187,0.2252,0.2224,0.2387,0.2359,0.2331,0.2327,0.2177,0.2152,0.2462,0.2462,0.2461,0.2461,0.246,0,0.1739,0.1741,0.1773,0.1769,0.178,0.1812,0.1833,0.1867,0.1919,0.1943,0.2008,0.2033,0.2133,0.2223,0.2297,0.2358,0.2433,0.235,0.2361,0.219,0.2166,0.2363,0.2349,0.2468,0.2466,0.2465,0.2464,0,0.1694,0.1717,0.1716,0.1749,0.1761,0.1767,0.1803,0.1819,0.1877,0.1913,0.1934,0.2023,0.2135,0.2248,0.2396,0.2387,0.2478,0.249,0.2291,0.227,0.2388,0.2375,0.2485,0.2482,0.248,0.2479,0.2477,0,0.1665,0.1663,0.1689,0.1687,0.1696,0.1717,0.173,0.1789,0.1801,0.1893,0.1899,0.2022,0.2083,0.2257,0.2291,0.2415,0.2488,0.2283,0.2163,0.2388,0.2389,0.2379,0.2368,0.2026,0.2021,0.2017,0.2014,0,0.1605,0.1618,0.1615,0.1622,0.1628,0.1629,0.1651,0.1653,0.1725,0.1792,0.187,0.1936,0.2044,0.2042,0.2145,0.2187,0.2236,0.2196,0.2514,0.2012,0.1959,0.1958,0.1963,0.1977,0.198,0.1983,0.1985,0.1987,0.1552,0.1537,0.154,0.1542,0.1547,0.1527,0.1549,0.1564,0.161,0.1652,0.1761,0.1796,0.1814,0.1841,0.1871,0.1899,0.2032,0.1964,0.1976,0.1993,0.1869,0.181,0.1781,0.1784,0.1786,0.1788,0.1789,0,0.1474,0.1476,0.1464,0.1458,0.1445,0.1494,0.1492,0.1492,0.1549,0.1524,0.1599,0.1469,0.1476,0.1542,0.1505,0.1528,0.1524,0.1504,0.1475,0.1512,0.1545,0.1396,0.1185,0.1183,0.1182,0.118,0,0,0.1428,0.139,0.1389,0.1359,0.1391,0.139,0.1413,0.1377,0.1343,0.1278,0.1249,0.1315,0.1402,0.1217,0.1244,0.1203,0.1342,0.1171,0.165,0.1646,0.1676,0.1803,0.1614,0,0,0,0,0]},{"header":{"parameterUnit":"m.s-1","parameterCategory":2,"la1":30.2991,"la2":30.254,"lo1":-89.0895,"lo2":-89.0444,"dy":0.0017,"dx":0.0017,"nx":28,"ny":28,"refTime":"2025-12-13T03:00:00:Z","depth":"2","parameterNumber":3,"parameterNumberName":"V-component_of_CURRENTS"},"data":[0,0,0,0,0,0,0,0,0,0,0,0,0,0,0,0,0,0,0,0,0,0,0,0,0,0,0,0,0,0,0,0,0,0,0,0,0,0,0,0,0,0,0,0,0,0,0,0,0,0,0,0,0,0,0,0,0,0,0.0408,0.0407,0,0.0319,0.0318,0.0316,0.0222,0.0221,0.022,0.0219,0.0058,0.0055,0.0052,0,0,0,0,0,0,0,0,0,0,0,0,0,0.0446,0.0447,0.0408,0.0407,0.0406,0.0319,0.0317,0.0316,0.0223,0.0221,0.022,0.0218,0.0059,0.0056,0.0052,0,0,0,0,0,0,0,0,0,0,0,0,0,0.04,0.0447,0.0408,0.0349,0.0343,0.0319,0.0317,0.0316,0.0223,0.0221,0.0219,0.0217,0.006,0.0056,0.0051,0.006,0,0,0.0037,0.0035,0,0,0,0,0,0,0,0,0.0403,0.0399,0.0359,0.0353,0.0346,0.028,0.0272,0.0227,0.0223,0.0268,0.0219,0.0216,0.0128,0.0117,0.0105,0.0053,0.0046,0.0037,0.0034,0.0032,0.003,0,0,0,0,0,0,0,0.0407,0.0402,0.0372,0.0358,0.035,0.031,0.0301,0.0263,0.0208,0.0264,0.0257,0.0249,0.0123,0.011,0.01,0.0043,0.0037,0.0033,0.003,0.0028,-0.0094,-0.0095,0,0,0,0,0,0,0.0424,0.0406,0.0375,0.0369,0.0371,0.0311,0.0301,0.0303,0.0209,0.0194,0.025,0.0245,0.0119,0.0106,0.0094,0.0042,0.0032,0.0027,0.0025,-0.0094,-0.0094,-0.0095,0,0,0,0,0,0,0.0425,0.0422,0.0378,0.0385,0.0377,0.0313,0.0315,0.0302,0.0262,0.02,0.0183,0.022,0.0117,0.0101,0.0042,0.0037,0.0025,0.0021,-0.0093,-0.0094,-0.0095,-0.0025,0,0,0,0,0,0,0.0427,0.0424,0.0419,0.0387,0.0377,0.0358,0.0316,0.0302,0.0262,0.0253,0.0169,0.0154,0.0114,0.0049,0.0037,0.0031,0.0018,-0.0093,-0.0094,-0.0094,-0.0027,-0.0023,-0.002,0,0,0,0,0,0.0429,0.0432,0.042,0.0415,0.0377,0.0358,0.0349,0.0296,0.0262,0.0251,0.019,0.0155,0.0035,0.0045,0.0031,0.0023,-0.0092,-0.0093,-0.0094,-0.0028,-0.0024,-0.002,0,0,0,0,0,0,0.0437,0.0422,0.0408,0.0403,0.0381,0.0342,0.032,0.0291,0.0236,0.0213,0.0153,0.0134,0.0079,0.0042,0.0055,-0.0016,-0.0036,-0.004,0.0019,0.0023,0.0026,0.0046,0.0014,0,0,0,0,0,0.0444,0.0443,0.0422,0.0415,0.0404,0.0361,0.034,0.031,0.0264,0.0236,0.0179,0.0117,0.0071,0.0038,-0.001,-0.0044,-0.0051,-0.0061,-0.0058,-0.0054,-0.0049,-0.0054,-0.0049,-0.0098,-0.0098,-0.0098,0,0,0.0443,0.0435,0.0431,0.0417,0.0389,0.0385,0.0342,0.0312,0.0301,0.0228,0.0179,0.0124,0.0063,0.0022,-0.0005,-0.0014,-0.0043,-0.0056,-0.0052,-0.0049,-0.0054,-0.0049,-0.0045,-0.0099,-0.0099,-0.0099,0,0,0.0452,0.0436,0.0441,0.043,0.04,0.0382,0.0374,0.033,0.0298,0.0254,0.0201,0.0151,0.0067,0.0038,0.001,0.0004,-0.0025,-0.0027,0.0006,0.0002,0.0006,0.001,0.0024,0.0029,-0.0025,-0.0025,-0.0025,0,0.0448,0.0461,0.0437,0.044,0.0434,0.0385,0.0391,0.0362,0.0302,0.0289,0.0239,0.0141,0.0083,0.006,0.0043,0.0015,0.0007,0.0001,0.001,0.0013,0.0016,0.0029,0.0033,-0.0021,-0.0022,-0.0022,-0.0022,0,0.0472,0.0473,0.0472,0.0471,0.0461,0.0454,0.0426,0.0403,0.0353,0.0325,0.0274,0.0198,0.014,0.0113,0.0066,0.0058,0.0045,0.0019,0.001,0.0026,0.0038,0.0041,-0.0017,-0.0018,-0.0019,-0.002,0,0,0.0488,0.0491,0.0487,0.0501,0.0478,0.048,0.0467,0.0458,0.0461,0.038,0.0381,0.028,0.0228,0.0193,0.0135,0.0122,0.013,0.0071,0.0069,0.0103,0.0129,0.0129,0.0132,0.01,0.0101,0.0101,0.0136,0,0.0511,0.054,0.053,0.0553,0.057,0.0539,0.0543,0.0524,0.0489,0.0477,0.0401,0.036,0.0263,0.0229,0.0198,0.0147,0.0137,0.0123,0.0092,0.0091,0.0104,0.0136,0.0072,0.0098,0.014,0.014,0.014,0,0.0544,0.0563,0.0591,0.0621,0.0624,0.062,0.0635,0.0631,0.0608,0.0577,0.0522,0.046,0.0406,0.0325,0.0252,0.0242,0.0182,0.0148,0.0149,0.0125,0.0096,0.0081,0.0102,0.0146,0.0145,0.0145,0.0145,0,0.0591,0.0611,0.0639,0.0644,0.0661,0.0659,0.0657,0.0648,0.0658,0.0631,0.0631,0.0557,0.0515,0.0433,0.0324,0.0282,0.0277,0.0216,0.0172,0.0173,0.0102,0.0095,0.0181,0.0181,0.0181,0.0181,0.0181,0,0.0642,0.0662,0.0654,0.0671,0.071,0.0695,0.0726,0.072,0.0717,0.0744,0.0664,0.0683,0.0533,0.05,0.039,0.0306,0.0323,0.0193,0.0183,0.0124,0.0119,0.0137,0.0131,0.0183,0.0182,0.0182,0.0182,0,0.0692,0.0686,0.0723,0.0731,0.073,0.075,0.0759,0.0798,0.0773,0.0807,0.0795,0.0771,0.073,0.0619,0.0523,0.0399,0.0324,0.0292,0.0245,0.0228,0.0204,0.0201,0.0235,0.0235,0.0236,0.0236,0.0236,0,0.0723,0.0743,0.0761,0.0783,0.0775,0.0795,0.0826,0.0817,0.0845,0.0874,0.0903,0.0886,0.0894,0.0779,0.0562,0.0407,0.0397,0.0256,0.0152,0.0223,0.021,0.0207,0.0204,0.009,0.0089,0.0088,0.0088,0,0.0783,0.0772,0.0803,0.0843,0.0866,0.0912,0.0927,0.0972,0.0975,0.0998,0.1064,0.1085,0.0954,0.0778,0.056,0.0434,0.0268,0.0234,0.0334,0.0088,0.009,0.0076,0.0077,0.008,0.0081,0.0081,0.0082,0.0082,0.0813,0.0844,0.0868,0.0911,0.0939,0.0997,0.1038,0.1092,0.1147,0.1178,0.1197,0.1181,0.0988,0.0673,0.0476,0.0224,0.0239,0.0121,0.0122,0.0124,0.0103,0.0105,0.0095,0.0096,0.0097,0.0098,0.0098,0,0.0857,0.0883,0.0937,0.0971,0.0999,0.0989,0.1085,0.114,0.1221,0.1246,0.1271,0.1051,0.0865,0.0653,0.0236,0.0038,-0.0012,-0.0002,-0.0044,-0.0035,-0.0028,-0.0059,-0.0108,-0.0109,-0.011,-0.011,0,0,0.0879,0.0941,0.0974,0.1013,0.1,0.106,0.1111,0.1208,0.1251,0.127,0.1199,0.1181,0.0897,0.0579,0.0309,0.0083,0.007,0.0042,0.0218,0.0205,0.0215,0.0045,0.0008,0,0,0,0,0]}],[{"header":{"parameterUnit":"m.s-1","parameterCategory":2,"la1":30.2991,"la2":30.254,"lo1":-89.0895,"lo2":-89.0444,"dy":0.0017,"dx":0.0017,"nx":28,"ny":28,"refTime":"2025-12-13T03:00:00:Z","depth":"4","parameterNumber":2,"parameterNumberName":"U-component_of_CURRENTS"},"data":[0,0,0,0,0,0,0,0,0,0,0,0,0,0,0,0,0,0,0,0,0,0,0,0,0,0,0,0,0,0,0,0,0,0,0,0,0,0,0,0,0,0,0,0,0,0,0,0,0,0,0,0,0,0,0,0,0,0,-0.0074,-0.0074,0,-0.0044,-0.0044,-0.0044,-0.0027,-0.0027,-0.0026,-0.0026,0.0036,0.0037,0.0039,0,0,0,0,0,0,0,0,0,0,0,0,0,-0.012,-0.012,-0.0074,-0.0074,-0.0073,-0.0044,-0.0044,-0.0044,-0.0027,-0.0027,-0.0026,-0.0026,0.0036,0.0037,0.0039,0,0,0,0,0,0,0,0,0,0,0,0,0,-0.0098,-0.0119,-0.0074,-0.006,-0.0058,-0.0044,-0.0044,-0.0044,-0.0027,-0.0027,-0.0026,-0.0026,0.0035,0.0037,0.0039,0.0046,0,0,0.0046,0.0047,0,0,0,0,0,0,0,0,-0.0099,-0.0096,-0.0063,-0.0061,-0.0059,-0.0037,-0.0037,-0.0011,-0.0027,-0.0041,-0.0026,-0.0026,0.0015,0.0019,0.0021,0.0049,0.0052,0.0046,0.0047,0.0048,0.0049,0,0,0,0,0,0,0,-0.0101,-0.0098,-0.0064,-0.0062,-0.006,-0.0056,-0.0053,-0.0033,-0.0015,-0.0039,-0.0038,-0.0032,0.0016,0.0019,0.0023,0.0053,0.0046,0.0048,0.0049,0.005,0.0201,0.0204,0,0,0,0,0,0,-0.0101,-0.0099,-0.0065,-0.0063,-0.0077,-0.0055,-0.0052,-0.0046,-0.0016,-0.0011,-0.0032,-0.0031,0.0015,0.002,0.0025,0.0122,0.0048,0.005,0.0052,0.0198,0.0202,0.0205,0,0,0,0,0,0,-0.0102,-0.0098,-0.0066,-0.0079,-0.0074,-0.0055,-0.0049,-0.0046,-0.0028,-0.0011,-0.0005,-0.0015,0.0016,0.0022,0.0063,0.0122,0.0051,0.0053,0.0195,0.0199,0.0203,0.0261,0,0,0,0,0,0,-0.0104,-0.0099,-0.0094,-0.0079,-0.0074,-0.0042,-0.0049,-0.0045,-0.0025,-0.0023,0.0005,0.001,0.0016,0.006,0.0066,0.0123,0.0055,0.0192,0.0197,0.0202,0.0256,0.0267,0.0276,0,0,0,0,0,-0.0106,-0.0095,-0.0094,-0.009,-0.0068,-0.004,-0.0037,-0.0024,-0.0024,-0.0008,0.0012,0.001,0.0097,0.0063,0.0069,0.0129,0.0189,0.0196,0.0201,0.0251,0.0265,0.0276,0,0,0,0,0,0,-0.0115,-0.0092,-0.009,-0.0075,-0.0053,-0.0037,-0.0023,-0.0015,0.0011,0.0016,0.0027,0.0034,0.0099,0.0104,0.0066,0.0191,0.0151,0.0158,0.0187,0.0199,0.0209,0.0253,0.0057,0,0,0,0,0,-0.0115,-0.0102,-0.0078,-0.0067,-0.0053,-0.0037,-0.0025,-0.0012,0.0011,0.0022,0.0047,0.0082,0.0127,0.0152,0.0185,0.0239,0.0226,0.0289,0.0299,0.0308,0.035,0.0368,0.0383,0.0224,0.0224,0.0224,0,0,-0.012,-0.0103,-0.0098,-0.0068,-0.0053,-0.0022,-0.0028,0.0,0.004,0.0026,0.0089,0.0114,0.0149,0.0217,0.0249,0.0229,0.0337,0.0315,0.0322,0.0361,0.0376,0.0391,0.0405,0.0229,0.0228,0.0227,0,0,-0.0113,-0.0101,-0.0083,-0.0061,-0.0027,-0.0007,0.0006,0.0041,0.0073,0.0133,0.0142,0.0196,0.0261,0.0298,0.0325,0.0411,0.0387,0.0434,0.0523,0.0539,0.0551,0.0563,0.0515,0.0522,0.0441,0.0441,0.0442,0,-0.0117,-0.0088,-0.0073,-0.0045,-0.0015,0.0005,0.0044,0.0078,0.0126,0.0167,0.017,0.0296,0.0308,0.0405,0.0449,0.0435,0.0425,0.0465,0.055,0.0561,0.0572,0.052,0.0527,0.0445,0.0445,0.0444,0.0444,0,-0.0091,-0.0066,-0.005,-0.0003,0.0031,0.0066,0.0119,0.0169,0.0218,0.0255,0.037,0.0406,0.0492,0.0505,0.0512,0.0613,0.0569,0.055,0.0511,0.0591,0.0531,0.0537,0.045,0.0449,0.0448,0.0447,0,0,-0.0093,-0.0042,-0.0032,0.0001,0.0061,0.0098,0.0176,0.0261,0.0323,0.0402,0.0506,0.0598,0.0634,0.0672,0.0688,0.0716,0.0752,0.0689,0.0688,0.0628,0.0756,0.0708,0.0708,0.0753,0.0756,0.0758,0.0664,0,-0.0069,-0.0013,0.0018,0.0089,0.0128,0.0184,0.0258,0.0335,0.0408,0.0508,0.059,0.0687,0.0693,0.0753,0.0792,0.0765,0.0782,0.0778,0.0703,0.07,0.0637,0.072,0.0767,0.0668,0.0669,0.067,0.0671,0,-0.0036,-0.0002,0.0068,0.0152,0.0179,0.0236,0.0369,0.044,0.0565,0.0625,0.0745,0.0801,0.0898,0.0886,0.0905,0.0907,0.0868,0.083,0.0824,0.078,0.0667,0.0588,0.0681,0.068,0.0679,0.0679,0.0678,0,-0.0026,0.0046,0.011,0.0135,0.0227,0.0298,0.0373,0.0486,0.0555,0.0717,0.0772,0.0895,0.0944,0.0966,0.0905,0.0926,0.0874,0.0867,0.0779,0.0769,0.0807,0.0797,0.0897,0.0897,0.0897,0.0898,0.0898,0,0.0001,0.0046,0.0125,0.0157,0.0252,0.0328,0.0449,0.0529,0.0654,0.072,0.0849,0.0903,0.0974,0.0953,0.0926,0.0852,0.0879,0.0827,0.0774,0.0825,0.0819,0.0807,0.0798,0.0894,0.0895,0.0895,0.0896,0,-0.0008,0.0043,0.0109,0.0214,0.0256,0.0334,0.0471,0.0543,0.0658,0.0754,0.0814,0.0901,0.0894,0.0891,0.0859,0.0833,0.0783,0.0738,0.0747,0.0688,0.0665,0.066,0.0688,0.0687,0.0685,0.0684,0.0683,0,-0.0011,0.0024,0.013,0.0176,0.0229,0.0346,0.0417,0.0546,0.0601,0.072,0.0746,0.0797,0.0841,0.0738,0.0752,0.0699,0.069,0.0649,0.0756,0.0715,0.0659,0.0656,0.0654,0.068,0.068,0.068,0.0679,0,-0.0029,0.0013,0.0063,0.015,0.0233,0.0306,0.0411,0.0441,0.057,0.0664,0.0692,0.0732,0.0705,0.0707,0.0648,0.0613,0.0693,0.0635,0.064,0.074,0.0705,0.065,0.0649,0.0674,0.0675,0.0675,0.0675,0,-0.0045,-0.002,0.0051,0.0123,0.0201,0.0243,0.0312,0.0382,0.0455,0.0587,0.0569,0.0622,0.0671,0.0654,0.0593,0.0575,0.0612,0.0615,0.0622,0.0628,0.0662,0.0612,0.0536,0,0,0,0,0,-0.0056,-0.0037,0.0019,0.0098,0.0158,0.0198,0.0288,0.0352,0.0455,0.0463,0.0531,0.0523,0.0538,0.0552,0.0527,0.0568,0.0589,0.0538,0.059,0.0645,0.0651,0.0702,0,0,0,0,0,0,-0.0058,-0.0017,0.0,0.004,0.0078,0.0142,0.0185,0.0255,0.0277,0.0384,0.0385,0.0492,0.049,0.053,0.0511,0.0517,0.0543,0.0578,0.0577,0.0641,0.0647,0.0652,0.0706,0,0,0,0,0]},{"header":{"parameterUnit":"m.s-1","parameterCategory":2,"la1":30.2991,"la2":30.254,"lo1":-89.0895,"lo2":-89.0444,"dy":0.0017,"dx":0.0017,"nx":28,"ny":28,"refTime":"2025-12-13T03:00:00:Z","depth":"4","parameterNumber":3,"parameterNumberName":"V-component_of_CURRENTS"},"data":[0,0,0,0,0,0,0,0,0,0,0,0,0,0,0,0,0,0,0,0,0,0,0,0,0,0,0,0,0,0,0,0,0,0,0,0,0,0,0,0,0,0,0,0,0,0,0,0,0,0,0,0,0,0,0,0,0,0,0.054,0.0541,0,0.0541,0.0541,0.054,0.0557,0.0558,0.0559,0.056,0.0574,0.0574,0.0573,0,0,0,0,0,0,0,0,0,0,0,0,0,0.054,0.054,0.054,0.0541,0.0541,0.0541,0.0541,0.054,0.0557,0.0558,0.0559,0.0561,0.0574,0.0574,0.0573,0,0,0,0,0,0,0,0,0,0,0,0,0,0.0535,0.0539,0.054,0.0554,0.0555,0.0541,0.0541,0.054,0.0557,0.0558,0.056,0.0561,0.0575,0.0574,0.0573,0.0541,0,0,0.0571,0.0571,0,0,0,0,0,0,0,0,0.0536,0.0535,0.0551,0.0553,0.0555,0.0555,0.0546,0.0543,0.0557,0.0551,0.056,0.0562,0.0572,0.0571,0.056,0.0541,0.0542,0.0571,0.057,0.057,0.057,0,0,0,0,0,0,0,0.0536,0.0535,0.0535,0.0552,0.0554,0.0556,0.0556,0.0545,0.0549,0.0551,0.0554,0.0562,0.0572,0.0561,0.0561,0.0542,0.0571,0.057,0.057,0.0569,0.0534,0.0534,0,0,0,0,0,0,0.0546,0.0535,0.0535,0.0536,0.0555,0.0555,0.0555,0.0549,0.0549,0.0552,0.0561,0.0563,0.0562,0.0562,0.0562,0.0564,0.057,0.0569,0.0569,0.0535,0.0534,0.0534,0,0,0,0,0,0,0.0545,0.0545,0.0535,0.0541,0.054,0.0554,0.0547,0.0549,0.056,0.0557,0.056,0.0574,0.0563,0.0563,0.0566,0.0564,0.0569,0.0568,0.0535,0.0535,0.0534,0.0543,0,0,0,0,0,0,0.0545,0.0544,0.0546,0.0541,0.0541,0.0541,0.0546,0.0548,0.0564,0.0567,0.0569,0.057,0.0564,0.0567,0.0565,0.0563,0.0568,0.0536,0.0535,0.0534,0.0544,0.0543,0.0542,0,0,0,0,0,0.0545,0.055,0.0546,0.0547,0.0541,0.0542,0.0541,0.0552,0.0564,0.0567,0.0568,0.0571,0.056,0.0566,0.0564,0.0561,0.0537,0.0535,0.0534,0.0544,0.0543,0.0542,0,0,0,0,0,0,0.0553,0.0553,0.0548,0.0553,0.0552,0.0547,0.056,0.0561,0.0561,0.0573,0.0566,0.0567,0.0568,0.056,0.0568,0.0547,0.0548,0.0546,0.0555,0.0555,0.0554,0.056,0.0567,0,0,0,0,0,0.0554,0.056,0.0552,0.0559,0.0561,0.0559,0.0564,0.0569,0.0571,0.0573,0.0577,0.0572,0.0555,0.0555,0.0546,0.0535,0.0498,0.0531,0.053,0.053,0.0532,0.0457,0.045,0.053,0.053,0.053,0,0,0.0558,0.0563,0.0564,0.0562,0.0565,0.0565,0.0565,0.0581,0.0582,0.0574,0.0587,0.0575,0.0552,0.0541,0.054,0.054,0.0486,0.0528,0.0528,0.0531,0.0455,0.0447,0.044,0.0529,0.053,0.053,0,0,0.0575,0.0575,0.0582,0.0582,0.0594,0.0589,0.0597,0.06,0.0603,0.0606,0.0594,0.0572,0.0576,0.0537,0.052,0.0506,0.0487,0.052,0.0522,0.0449,0.0442,0.0435,0.0374,0.0361,0.0519,0.0519,0.0519,0,0.0579,0.0587,0.0586,0.0593,0.0601,0.0602,0.0608,0.0602,0.0607,0.0593,0.0621,0.0579,0.0561,0.0508,0.0511,0.0502,0.0475,0.0528,0.0447,0.044,0.0432,0.0372,0.0358,0.0519,0.0519,0.0519,0.0519,0,0.0599,0.0604,0.0615,0.0619,0.0621,0.0635,0.0625,0.0631,0.0642,0.0618,0.0595,0.0571,0.0548,0.0529,0.0524,0.0463,0.0465,0.0456,0.045,0.0425,0.0363,0.0348,0.0519,0.0519,0.0519,0.0519,0,0,0.0615,0.0623,0.0631,0.0635,0.0639,0.0645,0.0643,0.0621,0.0603,0.0608,0.0583,0.0543,0.054,0.0521,0.0502,0.0436,0.0356,0.0443,0.0439,0.0384,0.0214,0.0245,0.0232,0.0347,0.0344,0.0342,0.019,0,0.0633,0.0652,0.0651,0.0668,0.0672,0.0667,0.066,0.0637,0.0614,0.0589,0.0546,0.0532,0.0534,0.0543,0.0475,0.0386,0.032,0.0399,0.0246,0.0241,0.0272,0.0217,0.0335,0.0179,0.0176,0.0173,0.0171,0,0.0658,0.0666,0.0689,0.0685,0.0687,0.0705,0.0687,0.0685,0.0623,0.0602,0.0569,0.0549,0.0481,0.0497,0.033,0.0393,0.0318,0.024,0.0232,0.025,0.0245,0.0208,0.0144,0.0146,0.0148,0.015,0.0152,0,0.0683,0.0694,0.072,0.0724,0.0718,0.0737,0.075,0.0696,0.0679,0.0639,0.0617,0.0531,0.0506,0.0402,0.0289,0.0314,0.0092,0.0092,0.0038,0.0039,0.0054,0.0063,-0.0035,-0.0035,-0.0034,-0.0034,-0.0034,0,0.0699,0.0717,0.0747,0.0762,0.0785,0.0787,0.0803,0.0775,0.0739,0.0695,0.0665,0.0604,0.0484,0.0363,0.0268,0.0113,0.0076,0.0025,-0.0005,0.0062,0.0073,0.0043,0.0054,-0.004,-0.0038,-0.0037,-0.0036,0,0.07,0.073,0.0755,0.0783,0.0803,0.0833,0.0865,0.0846,0.0828,0.078,0.0788,0.0639,0.0485,0.0355,0.0138,0.0079,-0.0069,-0.0112,-0.003,-0.0051,-0.007,-0.0057,-0.0202,-0.0203,-0.0203,-0.0203,-0.0203,0,0.0689,0.0712,0.0777,0.0815,0.0842,0.0897,0.0913,0.0902,0.0869,0.0782,0.0737,0.0602,0.0504,0.0223,0.0078,-0.0107,-0.0118,-0.0181,-0.0123,-0.0076,-0.0091,-0.0077,-0.0064,-0.0204,-0.0204,-0.0204,-0.0204,0,0.065,0.07,0.0729,0.0816,0.0868,0.0891,0.0921,0.0907,0.0874,0.0849,0.0703,0.0588,0.0391,0.0197,0.0068,-0.0068,-0.0132,-0.0184,-0.0184,-0.013,-0.008,-0.0091,-0.0078,-0.0205,-0.0205,-0.0204,-0.0204,0,0.0632,0.065,0.0725,0.0783,0.086,0.0874,0.0896,0.0866,0.0842,0.0762,0.0691,0.0528,0.0408,0.0211,0.0073,-0.0031,-0.0055,-0.0066,-0.0073,-0.0074,0.003,0.0118,0.0012,0,0,0,0,0,0.0595,0.0613,0.0677,0.0764,0.0846,0.0874,0.0875,0.0883,0.0857,0.0766,0.0744,0.0581,0.0372,0.0242,0.0142,0.006,-0.0078,-0.006,-0.0094,-0.021,-0.0209,-0.0103,0,0,0,0,0,0,0.0575,0.0631,0.0648,0.0724,0.0797,0.0854,0.0857,0.0838,0.0787,0.0757,0.0632,0.0586,0.0362,0.0447,0.0152,0.0112,0.0082,-0.0162,-0.0164,-0.021,-0.0209,-0.0208,-0.01,0,0,0,0,0]}]]